Regional Weather Roundup
Issued by NWS

Home | Current Version | Previous Version | Text Only | Print | Product List | Glossary Off
Versions: 1 2 3 4 5 6 7 8 9 10 11 12 13 14 15 16 17 18 19 20 21 22 23 24 25 26 27 28 29 30 31 32 33 34 35 36 37 38 39 40 41 42 43 44 45 46 47 48 49 50

000
ASUS43 KFSD 261402
RWRSD

WEATHER ROUNDUP FOR SOUTH DAKOTA
NATIONAL WEATHER SERVICE SIOUX FALLS SD
900 AM CDT THU MAR 26 2015

NOTE: "FAIR" INDICATES FEW OR NO CLOUDS BELOW 12,000 FEET WITH NO
SIGNIFICANT WEATHER AND/OR OBSTRUCTIONS TO VISIBILITY.


SDZ001>005-009-010-012>017-261500-
NORTHWEST AND NORTH CENTRAL SOUTH DAKOTA

CITY           SKY/WX    TMP DP  RH WIND       PRES   REMARKS
BUFFALO          N/A     33  27  78 N3        30.00R
FAITH            N/A     30  25  81 SE9       30.08S WCI  22
MOBRIDGE       CLOUDY    29  22  75 SE6       30.13S WCI  23
$$

SDZ012>016-024>037-041>051-057-063-072>074-261500-
SOUTHWEST AND SOUTH CENTRAL SOUTH DAKOTA

CITY           SKY/WX    TMP DP  RH WIND       PRES   REMARKS
RAPID CTY ARPT CLOUDY    45  30  55 NW21G29   30.06S
PIERRE         CLOUDY    25  21  85 S3        30.15F
CUSTER         MOSUNNY   35  25  66 NW10      30.06S WCI  27
ELLSWORTH AFB  CLOUDY    46  29  51 NW20G29   30.04S
PHILIP         CLOUDY    25  19  78 E3        30.09F
PINE RIDGE     CLOUDY    35  27  72 SW6       30.10S
SPEARFISH      FAIR      41  30  65 W15G23    30.07F
WINNER         CLOUDY    30  22  72 SE5       30.15F WCI  25
$$

SDZ004>011-016>023-039-040-261500-
NORTHEAST SOUTH DAKOTA

CITY           SKY/WX    TMP DP  RH WIND       PRES   REMARKS
ABERDEEN       CLOUDY    29  24  82 NE6       30.21R WCI  23
WATERTOWN      MOSUNNY   28  24  85 NE6       30.17R WCI  22
SISSETON         N/A     27  24  89 N9        30.21R WCI  18
$$

SDZ017-020-022-023-036>040-048>070-261500-
SOUTHEAST SOUTH DAKOTA

CITY           SKY/WX    TMP DP  RH WIND       PRES   REMARKS
SIOUX FALLS    MOSUNNY   30  21  69 NW8       30.18S WCI  22
HURON          MOSUNNY   24  19  81 NW6       30.21S WCI  17
MITCHELL       SUNNY     26  20  77 NW3       30.22S
YANKTON        SUNNY     28  21  74 NW5       30.23S WCI  23
$$

ABBREVIATIONS USED IN REMARKS
   TC - TEMPERATURE IN CELSIUS
  WCI - WIND CHILL INDEX
   HX - HEAT INDEX
  VSB - VISIBILITY



USA.gov is the U.S. government's official web portal to all federal, state and local government web resources and services.